Regional Weather Roundup
Issued by NWS

Home | Current Version | Previous Version | Text Only | Print | Product List | Glossary On
Versions: 1 2 3 4 5 6 7 8 9 10 11 12 13 14 15 16 17 18 19 20 21 22 23 24 25 26 27 28 29 30 31 32 33 34 35 36 37 38 39 40 41 42 43 44 45 46 47 48 49 50
000
ASUS43 KOAX 172210
RWRNE

WEATHER ROUNDUP FOR NEBRASKA
NATIONAL WEATHER SERVICE OMAHA NE
500 PM CDT WED SEP 17 2014

NOTES: SATELLITE DATA IS BEING USED TO AUGMENT CLOUD COVER ABOVE
       12000 FEET.
       "FAIR" INDICATES FEW OR NO CLOUDS BELOW 12,000 FEET WITH NO
       SIGNIFICANT WEATHER AND/OR OBSTRUCTIONS TO VISIBILITY.

  * THESE STATIONS DO NOT REPORT WEATHER SUCH AS RAIN...SNOW OR FOG.

NEZ001>004-019>022-054>056-172300-
NEBRASKA PANHANDLE

CITY           SKY/WX    TMP DP  RH WIND       PRES   REMARKS
SCOTTSBLUFF    CLOUDY    89  43  20 NW10      29.95S
ALLIANCE       MOSUNNY   85  43  22 NE3       29.94F
CHADRON        MOSUNNY   83  52  34 E7        29.91F
KIMBALL        MOSUNNY   85  34  16 NW13      29.98F
SIDNEY         SUNNY     90  40  17 E8        29.96F
$$

NEZ057>060-069>072-079>082-172300-
SOUTHWEST NEBRASKA

CITY           SKY/WX    TMP DP  RH WIND       PRES   REMARKS
NORTH PLATTE   SUNNY     83  61  47 E15       29.89F
IMPERIAL       SUNNY     88  49  25 W3        29.90F
LEXINGTON      SUNNY     82  61  49 SE8       29.90S
MCCOOK         SUNNY     87  59  38 SE8       29.88F
OGALLALA       SUNNY     89  53  29 SE7       29.89F
$$

NEZ005>010-023>029-035>040-094-172300-
NORTH CENTRAL NEBRASKA

CITY           SKY/WX    TMP DP  RH WIND       PRES   REMARKS
VALENTINE      PTSUNNY   83  51  33 E9        29.92S
AINSWORTH        N/A     75  56  50 E7        29.93F HAZE
BROKEN BOW     SUNNY     83  59  44 SE9       29.90F
O`NEILL        MOSUNNY   78  59  52 E5        29.92S
ORD            SUNNY     80  61  52 E9        29.89S
THEDFORD       SUNNY     89  44  20 SE7       29.91S
$$

NEZ041-046>049-061>064-073>077-083>087-172300-
SOUTH CENTRAL NEBRASKA

CITY           SKY/WX    TMP DP  RH WIND       PRES   REMARKS
GRAND ISLAND   SUNNY     81  62  52 E10       29.90F
AURORA         SUNNY     79  61  54 E9        29.90S
HASTINGS       SUNNY     79  61  53 SE8       29.90F
HEBRON         MOSUNNY   80  62  52 SE7       29.89F
HOLDREGE       SUNNY     81  61  51 SE10G16   29.90S
KEARNEY *      SUNNY     81  63  54 SE8       29.91S
YORK           SUNNY     77  66  69 SE7       29.90S
$$

NEZ011>018-030>034-042>045-172300-
NORTHEAST NEBRASKA

CITY           SKY/WX    TMP DP  RH WIND       PRES   REMARKS
NORFOLK        SUNNY     80  59  48 E9        29.90S
ALBION         SUNNY     78  62  57 S8        29.91R
BLAIR          SUNNY     79  61  53 SE3       29.90F
COLUMBUS *     SUNNY     79  63  57 E8        29.91S
FREMONT        SUNNY     81  56  42 E3        29.90S
TEKAMAH        SUNNY     84  57  39 CALM      29.89S
WAYNE          SUNNY     80  58  47 CALM      29.91R
$$

NEZ050>053-065>068-078-088>093-172300-
SOUTHEAST NEBRASKA

CITY           SKY/WX    TMP DP  RH WIND       PRES   REMARKS
LINCOLN        SUNNY     80  61  52 E8        29.90S
OMAHA EPPLEY   MOSUNNY   79  59  50 E6        29.89S
BEATRICE       SUNNY     79  64  58 SE8       29.89S
FALLS CITY     SUNNY     79  64  60 SE7       29.88F
NEBRASKA CITY  SUNNY     78  53  42 SE3       29.89F
PLATTSMOUTH    SUNNY     78  58  50 S5        29.90S
$$

NEZ044-045-051>053-067-172300-
OMAHA AREA

CITY           SKY/WX    TMP DP  RH WIND       PRES   REMARKS
OMAHA EPPLEY   MOSUNNY   79  59  50 E6        29.89S
BLAIR          SUNNY     79  61  53 SE3       29.90F
FREMONT        SUNNY     81  56  42 E3        29.90S
MILLARD        SUNNY     80  62  54 S7        29.89S
OFFUTT AFB     SUNNY     80  67  64 SE3       29.89S
PLATTSMOUTH    SUNNY     78  58  50 S5        29.90S
WAHOO          FAIR      80  58  48 SE6       29.90S
$$


USA.gov is the U.S. government's official web portal to all federal, state and local government web resources and services.